Time,TemperatureF,DewpointF,PressureIn,WindDirection,WindDirectionDegrees,WindSpeedMPH,WindSpeedGustMPH,Humidity,HourlyPrecipIn,Conditions,Clouds,dailyrainin,SoftwareType,DateUTC
2013-03-06 06:52:00,27.0,25.0,29.98,ENE,63,2.0,-999.0,92,-99.99,,,-99.99,,2013-03-06 11:52:00,
2013-03-06 07:02:00,28.0,26.0,29.99,ENE,67,3.0,9.0,92,0.00,,,0.00,,2013-03-06 12:02:00,
2013-03-06 07:12:00,28.0,26.0,29.99,ENE,67,3.0,9.0,92,0.00,,,0.00,,2013-03-06 12:12:00,
2013-03-06 07:22:00,28.0,26.0,30.00,ENE,57,4.0,7.0,91,0.00,,,0.00,,2013-03-06 12:22:00,
2013-03-06 07:33:00,29.0,27.0,30.00,ENE,78,3.0,9.0,91,0.00,,,0.00,,2013-03-06 12:33:00,
2013-03-06 07:42:00,29.0,27.0,30.00,ENE,78,3.0,9.0,91,0.00,,,0.00,,2013-03-06 12:42:00,
2013-03-06 07:53:00,29.0,27.0,30.01,ENE,76,0.0,7.0,91,0.00,,,0.00,,2013-03-06 12:53:00,
2013-03-06 08:02:00,29.0,27.0,30.01,East,97,0.0,5.0,91,0.00,,,0.00,,2013-03-06 13:02:00,
2013-03-06 08:12:00,29.0,27.0,30.01,East,97,0.0,5.0,91,0.00,,,0.00,,2013-03-06 13:12:00,
2013-03-06 08:22:00,30.0,28.0,30.01,ENE,59,2.0,5.0,91,0.00,,,0.00,,2013-03-06 13:22:00,
2013-03-06 08:32:00,30.0,28.0,30.02,East,83,0.0,6.0,91,0.00,,,0.00,,2013-03-06 13:32:00,
2013-03-06 08:42:00,30.0,28.0,30.02,East,83,0.0,6.0,91,0.00,,,0.00,,2013-03-06 13:42:00,
2013-03-06 08:52:00,31.0,29.0,30.03,East,82,3.0,5.0,91,0.00,,,0.00,,2013-03-06 13:52:00,
2013-03-06 09:01:00,32.0,30.0,30.03,East,101,3.0,6.0,91,0.00,,,0.00,,2013-03-06 14:01:00,
2013-03-06 09:11:00,32.0,30.0,30.03,East,101,3.0,6.0,91,0.00,,,0.00,,2013-03-06 14:11:00,
2013-03-06 09:22:00,33.0,31.0,30.03,East,101,1.0,6.0,92,0.00,,,0.00,,2013-03-06 14:22:00,
2013-03-06 09:32:00,33.0,31.0,30.04,East,80,2.0,10.0,92,0.00,,,0.00,,2013-03-06 14:32:00,
2013-03-06 09:42:00,33.0,31.0,30.04,East,80,2.0,10.0,92,0.00,,,0.00,,2013-03-06 14:42:00,
2013-03-06 09:53:00,34.0,32.0,30.05,East,90,6.0,11.0,91,0.00,,,0.00,,2013-03-06 14:53:00,
2013-03-06 10:02:00,34.0,31.0,30.05,ENE,66,8.0,11.0,90,0.00,,,0.00,,2013-03-06 15:02:00,
2013-03-06 10:12:00,34.0,31.0,30.05,ENE,66,8.0,11.0,90,0.00,,,0.00,,2013-03-06 15:12:00,
2013-03-06 10:22:00,35.0,32.0,30.05,NNE,31,5.0,13.0,89,0.00,,,0.00,,2013-03-06 15:22:00,
2013-03-06 10:32:00,35.0,32.0,30.05,ENE,69,6.0,13.0,89,0.00,,,0.00,,2013-03-06 15:32:00,
2013-03-06 10:42:00,35.0,32.0,30.05,ENE,69,6.0,13.0,89,0.00,,,0.00,,2013-03-06 15:42:00,
2013-03-06 10:52:00,36.0,33.0,30.06,ENE,71,6.0,13.0,87,0.00,,,0.00,,2013-03-06 15:52:00,
2013-03-06 11:02:00,36.0,33.0,30.06,ENE,62,8.0,13.0,87,0.00,,,0.00,,2013-03-06 16:02:00,
2013-03-06 11:12:00,36.0,33.0,30.06,ENE,62,8.0,13.0,87,0.00,,,0.00,,2013-03-06 16:12:00,
2013-03-06 11:21:00,36.0,33.0,30.06,ENE,69,4.0,14.0,87,0.00,,,0.00,,2013-03-06 16:21:00,
2013-03-06 11:32:00,36.0,32.0,30.06,ENE,72,6.0,12.0,86,0.00,,,0.00,,2013-03-06 16:32:00,
2013-03-06 11:42:00,36.0,32.0,30.06,ENE,72,6.0,12.0,86,0.00,,,0.00,,2013-03-06 16:42:00,
2013-03-06 11:52:00,37.0,33.0,30.06,ENE,68,8.0,14.0,86,0.00,,,0.00,,2013-03-06 16:52:00,
2013-03-06 12:01:00,37.0,33.0,30.07,ENE,65,6.0,14.0,85,0.00,,,0.00,,2013-03-06 17:01:00,
2013-03-06 12:11:00,37.0,33.0,30.07,ENE,65,6.0,14.0,85,0.00,,,0.00,,2013-03-06 17:11:00,
2013-03-06 12:22:00,38.0,34.0,30.07,East,90,7.0,14.0,85,0.00,,,0.00,,2013-03-06 17:22:00,
2013-03-06 12:32:00,38.0,34.0,30.07,NE,38,7.0,14.0,84,0.00,,,0.00,,2013-03-06 17:32:00,
2013-03-06 12:42:00,38.0,34.0,30.07,NE,38,7.0,14.0,84,0.00,,,0.00,,2013-03-06 17:42:00,
2013-03-06 12:53:00,38.0,34.0,30.07,NE,46,6.0,16.0,84,0.00,,,0.00,,2013-03-06 17:53:00,
2013-03-06 13:02:00,38.0,33.0,30.07,ENE,59,9.0,14.0,83,0.00,,,0.00,,2013-03-06 18:02:00,
2013-03-06 13:29:00,39.0,34.0,30.06,NE,56,7.0,17.0,81,0.00,,,0.00,,2013-03-06 18:29:00,
2013-03-06 13:42:00,39.0,34.0,30.06,ENE,69,9.0,17.0,82,0.00,,,0.00,,2013-03-06 18:42:00,
2013-03-06 13:53:00,39.0,34.0,30.06,NNE,32,6.0,15.0,81,0.00,,,0.00,,2013-03-06 18:53:00,
2013-03-06 14:02:00,39.0,33.0,30.06,ENE,76,5.0,13.0,80,0.00,,,0.00,,2013-03-06 19:02:00,
2013-03-06 14:11:00,39.0,33.0,30.06,ENE,76,5.0,13.0,80,0.00,,,0.00,,2013-03-06 19:11:00,
2013-03-06 14:22:00,39.0,33.0,30.06,NE,38,6.0,15.0,79,0.00,,,0.00,,2013-03-06 19:22:00,
2013-03-06 14:32:00,39.0,33.0,30.06,ENE,61,4.0,13.0,79,0.00,,,0.00,,2013-03-06 19:32:00,
2013-03-06 14:43:00,39.0,33.0,30.06,ENE,61,4.0,13.0,79,0.00,,,0.00,,2013-03-06 19:43:00,
2013-03-06 14:53:00,40.0,34.0,30.06,ENE,57,10.0,14.0,79,0.00,,,0.00,,2013-03-06 19:53:00,
2013-03-06 15:02:00,39.0,33.0,30.06,NE,40,9.0,17.0,80,0.00,,,0.00,,2013-03-06 20:02:00,
2013-03-06 15:12:00,39.0,33.0,30.06,NE,40,9.0,17.0,80,0.00,,,0.00,,2013-03-06 20:12:00,
2013-03-06 15:22:00,39.0,34.0,30.07,ENE,60,8.0,14.0,82,0.00,,,0.00,,2013-03-06 20:22:00,
2013-03-06 15:32:00,39.0,34.0,30.07,East,88,6.0,13.0,82,0.00,,,0.00,,2013-03-06 20:32:00,
2013-03-06 15:42:00,39.0,34.0,30.07,East,88,6.0,13.0,82,0.00,,,0.00,,2013-03-06 20:42:00,
2013-03-06 15:53:00,39.0,33.0,30.07,ENE,63,5.0,12.0,80,0.00,,,0.00,,2013-03-06 20:53:00,
2013-03-06 16:02:00,39.0,33.0,30.07,NE,47,3.0,11.0,79,0.00,,,0.00,,2013-03-06 21:02:00,
2013-03-06 16:12:00,39.0,33.0,30.07,NE,47,3.0,11.0,79,0.00,,,0.00,,2013-03-06 21:12:00,
2013-03-06 16:22:00,39.0,33.0,30.08,ENE,57,6.0,13.0,79,0.00,,,0.00,,2013-03-06 21:22:00,
2013-03-06 16:32:00,39.0,33.0,30.08,ENE,61,6.0,11.0,79,0.00,,,0.00,,2013-03-06 21:32:00,
2013-03-06 16:42:00,39.0,33.0,30.08,ENE,61,6.0,11.0,79,0.00,,,0.00,,2013-03-06 21:42:00,
2013-03-06 16:52:00,38.0,32.0,30.09,NE,38,7.0,13.0,80,0.00,,,0.00,,2013-03-06 21:52:00,
2013-03-06 17:02:00,38.0,33.0,30.09,NE,53,4.0,10.0,81,0.00,,,0.00,,2013-03-06 22:02:00,
2013-03-06 17:11:00,38.0,33.0,30.09,NE,53,4.0,10.0,81,0.00,,,0.00,,2013-03-06 22:11:00,
2013-03-06 17:22:00,38.0,33.0,30.09,ENE,68,3.0,9.0,81,0.00,,,0.00,,2013-03-06 22:22:00,
2013-03-06 17:32:00,38.0,33.0,30.10,East,80,4.0,12.0,81,0.00,,,0.00,,2013-03-06 22:32:00,
2013-03-06 17:42:00,38.0,33.0,30.10,East,80,4.0,12.0,81,0.00,,,0.00,,2013-03-06 22:42:00,
2013-03-06 17:52:00,38.0,33.0,30.10,ENE,63,1.0,10.0,82,0.00,,,0.00,,2013-03-06 22:52:00,
2013-03-06 18:01:00,37.0,32.0,30.10,East,82,4.0,7.0,82,0.00,,,0.00,,2013-03-06 23:01:00,
2013-03-06 18:11:00,37.0,32.0,30.10,East,82,4.0,7.0,82,0.00,,,0.00,,2013-03-06 23:11:00,
2013-03-06 18:22:00,37.0,32.0,30.11,East,80,0.0,4.0,83,0.00,,,0.00,,2013-03-06 23:22:00,
2013-03-06 18:32:00,37.0,32.0,30.11,East,80,0.0,0.0,83,0.00,,,0.00,,2013-03-06 23:32:00,
2013-03-06 18:42:00,37.0,32.0,30.11,East,80,0.0,0.0,83,0.00,,,0.00,,2013-03-06 23:42:00,
2013-03-06 18:52:00,36.0,32.0,30.11,ESE,111,1.0,3.0,84,0.00,,,0.00,,2013-03-06 23:52:00,
2013-03-06 19:02:00,36.0,32.0,30.12,ESE,111,0.0,0.0,84,0.00,,,0.00,,2013-03-07 00:02:00,
2013-03-06 19:11:00,36.0,32.0,30.12,ESE,111,0.0,0.0,84,0.00,,,0.00,,2013-03-07 00:11:00,
2013-03-06 19:22:00,36.0,32.0,30.12,ESE,111,0.0,0.0,84,0.00,,,0.00,,2013-03-07 00:22:00,
2013-03-06 19:32:00,36.0,32.0,30.12,ESE,111,0.0,0.0,84,0.00,,,0.00,,2013-03-07 00:32:00,
2013-03-06 19:42:00,36.0,32.0,30.12,ESE,111,0.0,0.0,84,0.00,,,0.00,,2013-03-07 00:42:00,
2013-03-06 19:52:00,36.0,32.0,30.12,ESE,111,0.0,0.0,85,0.00,,,0.00,,2013-03-07 00:52:00,
2013-03-06 20:01:00,36.0,32.0,30.12,ESE,111,0.0,0.0,85,0.00,,,0.00,,2013-03-07 01:01:00,
2013-03-06 20:11:00,36.0,32.0,30.12,ESE,111,0.0,0.0,85,0.00,,,0.00,,2013-03-07 01:11:00,
2013-03-06 20:21:00,35.0,31.0,30.13,ESE,111,0.0,0.0,86,0.00,,,0.00,,2013-03-07 01:21:00,
2013-03-06 20:32:00,35.0,31.0,30.13,ESE,111,0.0,0.0,86,0.00,,,0.00,,2013-03-07 01:32:00,
2013-03-06 20:42:00,35.0,31.0,30.13,ESE,111,0.0,0.0,86,0.00,,,0.00,,2013-03-07 01:42:00,
2013-03-06 20:52:00,35.0,32.0,30.13,ESE,111,0.0,0.0,87,0.00,,,0.00,,2013-03-07 01:52:00,
2013-03-06 21:01:00,35.0,32.0,30.13,ESE,111,0.0,0.0,87,0.00,,,0.00,,2013-03-07 02:01:00,
2013-03-06 21:11:00,35.0,32.0,30.13,ESE,111,0.0,0.0,87,0.00,,,0.00,,2013-03-07 02:11:00,
2013-03-06 21:21:00,34.0,31.0,30.13,ESE,111,0.0,0.0,88,0.00,,,0.00,,2013-03-07 02:21:00,
2013-03-06 21:32:00,35.0,32.0,30.13,ESE,111,0.0,0.0,88,0.00,,,0.00,,2013-03-07 02:32:00,
2013-03-06 21:42:00,35.0,32.0,30.13,ESE,111,0.0,0.0,88,0.00,,,0.00,,2013-03-07 02:42:00,
2013-03-06 21:52:00,35.0,32.0,30.13,ESE,111,0.0,0.0,88,0.00,,,0.00,,2013-03-07 02:52:00,
2013-03-06 22:02:00,35.0,32.0,30.13,ESE,111,0.0,0.0,88,0.00,,,0.00,,2013-03-07 03:02:00,
2013-03-06 22:11:00,35.0,32.0,30.13,ESE,111,0.0,0.0,88,0.00,,,0.00,,2013-03-07 03:11:00,
2013-03-06 22:22:00,35.0,32.0,30.13,ESE,111,0.0,0.0,88,0.00,,,0.00,,2013-03-07 03:22:00,
2013-03-06 22:32:00,35.0,32.0,30.13,ESE,111,0.0,0.0,88,0.00,,,0.00,,2013-03-07 03:32:00,
2013-03-06 22:42:00,35.0,32.0,30.13,ESE,111,0.0,0.0,88,0.00,,,0.00,,2013-03-07 03:42:00,
2013-03-06 22:52:00,34.0,31.0,30.13,ESE,111,0.0,0.0,88,0.00,,,0.00,,2013-03-07 03:52:00,
2013-03-06 23:02:00,34.0,31.0,30.14,ESE,111,0.0,0.0,88,0.00,,,0.00,,2013-03-07 04:02:00,
2013-03-06 23:12:00,34.0,31.0,30.14,ESE,111,0.0,0.0,88,0.00,,,0.00,,2013-03-07 04:12:00,
2013-03-06 23:22:00,34.0,31.0,30.14,ESE,111,0.0,0.0,89,0.00,,,0.00,,2013-03-07 04:22:00,
2013-03-06 23:32:00,34.0,31.0,30.14,ESE,111,0.0,0.0,89,0.00,,,0.00,,2013-03-07 04:32:00,
2013-03-06 23:42:00,34.0,31.0,30.14,ESE,111,0.0,0.0,89,0.00,,,0.00,,2013-03-07 04:42:00,
2013-03-06 23:52:00,34.0,31.0,30.13,ESE,111,0.0,0.0,90,0.00,,,0.00,,2013-03-07 04:52:00,